Temp
21 21 21 21 24 22 23 24 22 24 25 25 26 27 27 27 26 28 22 24 25 25 23 22 20 18 18 20 21 21 22 21 20 20 21 21 20 20 20 19 19 19 19 19 18 19 18 18 18
21 21 20 20 23 24 26 22 24 26 27 25 26 26 27 28 25 25 24 23 24 24 23 21 19 18 18 19 20 21 21 19 19 20 21 20 20 20 19 19 19 19 19 19 18 18 18 17 18
21 21 23 23 21 24 26 23 26 25 25 25 27 26 27 27 24 24 24 24 23 23 22 21 18 18 18 19 19 20 21 20 20 21 21 21 21 21 20 20 19 19 19 19 18 18 17 18 18
20 21 19 22 23 21 23 24 24 25 26 25 27 28 25 24 24 23 24 24 23 23 22 20 18 18 18 18 19 19 20 20 19 21 21 20 20 20 20 19 20 19 19 18 18 18 17 18 18
19 20 22 21 21 21 21 22 23 25 25 26 26 28 26 23 23 23 23 23 23 23 22 20 18 18 19 18 19 19 20 20 19 19 20 20 20 19 19 19 19 19 19 18 18 18 17 17 17
21 19 21 23 23 20 21 23 24 24 25 25 25 26 26 21 22 22 23 23 23 22 21 20 18 18 19 18 19 19 19 20 20 19 20 19 19 19 18 18 18 18 18 18 17 18 17 17 17
21 20 22 20 21 21 22 23 24 25 24 25 25 26 25 22 21 22 22 22 22 21 20 19 19 18 18 18 18 18 18 19 19 19 19 19 18 18 18 18 19 18 18 18 18 17 17 16 16
20 21 20 20 23 22 23 23 24 25 25 25 25 26 27 23 20 20 20 20 20 20 20 18 18 18 18 18 18 18 18 18 19 19 19 18 18 19 18 18 17 17 17 17 17 18 17 16 16
17 21 21 22 21 23 22 24 24 23 24 24 25 24 23 19 18 18 17 18 18 19 19 18 17 18 18 18 18 18 17 18 18 18 18 18 18 18 18 18 17 17 17 16 17 18 17 16 16
20 20 21 21 22 23 23 22 23 24 23 25 24 22 19 19 19 20 18 17 17 17 17 18 18 18 18 18 18 17 17 17 18 18 17 17 17 17 17 16 17 17 17 16 16 17 17 15 15
19 20 20 21 22 21 22 22 22 24 24 24 24 24 21 20 20 20 20 19 17 17 17 18 18 18 18 18 18 17 16 17 17 18 17 16 15 15 15 15 17 17 17 15 15 17 15 14 14
18 18 21 22 21 21 21 21 22 22 24 24 24 24 23 22 21 21 21 20 18 16 17 17 17 18 18 17 17 18 16 16 16 17 17 16 16 15 14 15 16 16 16 15 15 14 14 14 14
18 19 19 21 21 21 21 21 22 22 23 24 22 22 23 23 23 21 21 20 18 17 17 17 17 17 17 16 16 16 16 16 16 16 16 15 15 15 14 14 15 16 15 14 14 15 14 14 15
19 20 21 21 21 20 21 21 21 22 22 23 22 24 24 22 22 21 19 20 18 18 17 18 17 17 16 16 16 16 16 16 16 16 15 14 14 14 14 14 15 15 16 14 14 14 14 14 14
19 19 20 20 21 20 21 21 21 22 23 23 23 23 23 23 21 21 20 20 19 18 17 17 18 16 16 16 16 16 17 17 16 16 15 15 14 14 14 14 14 15 14 14 14 13 13 14 14
19 18 18 20 21 21 21 21 23 23 21 22 23 22 22 23 22 21 20 19 19 18 17 17 17 17 16 16 16 15 16 17 16 15 14 15 14 14 14 14 14 14 14 14 13 13 13 14 14
17 19 18 19 20 22 21 22 23 21 21 22 22 23 22 22 22 22 20 20 19 18 18 16 15 16 16 16 16 15 15 16 16 15 15 14 14 14 14 14 14 14 14 13 13 13 14 14 14
18 17 18 19 21 20 21 20 21 22 21 22 22 22 22 22 22 23 22 21 19 18 17 17 15 16 15 15 15 14 15 14 15 14 14 14 14 14 14 13 14 14 13 12 13 14 13 14 14
18 18 19 19 20 19 20 21 21 21 21 20 21 22 22 22 24 22 21 20 18 17 17 16 14 15 15 15 14 13 14 14 14 14 14 14 13 13 13 13 13 13 12 13 13 13 13 13 13
18 18 18 18 19 19 20 20 20 20 21 22 22 22 22 22 22 22 21 18 17 17 17 15 14 14 15 14 13 13 13 13 14 14 14 14 14 14 14 13 13 12 12 12 13 13 13 13 12
17 18 17 18 18 18 18 20 21 22 21 21 21 21 22 22 22 22 20 18 17 17 16 15 14 14 14 13 13 13 13 13 13 13 13 14 14 14 14 14 14 13 13 13 13 13 13 13 12
16 17 18 18 18 17 17 18 20 21 21 20 20 20 20 21 22 22 21 18 17 17 16 15 14 13 13 13 12 13 13 13 13 13 13 13 14 13 14 14 14 14 13 13 13 13 14 13 13
17 17 17 17 17 16 16 16 19 19 20 18 18 18 19 19 21 21 21 19 18 17 16 14 13 13 13 13 13 13 13 14 13 13 13 13 13 13 13 14 14 13 13 13 13 13 13 14 14
16 16 15 15 15 15 16 16 17 19 18 18 17 17 17 18 18 20 21 19 17 17 16 14 14 13 12 12 12 13 13 13 13 13 13 13 13 13 13 13 13 13 13 13 13 13 14 14 14
15 16 15 14 14 16 16 16 17 17 16 16 16 16 17 17 17 17 20 18 17 17 15 15 14 13 13 12 12 12 12 12 14 13 13 13 12 12 12 13 12 12 13 12 13 12 13 14 14
15 16 16 16 15 16 16 17 18 16 17 18 17 17 17 17 17 17 18 19 17 17 15 14 14 13 13 12 12 12 12 13 14 13 13 13 12 12 12 12 12 12 12 11 11 11 12 13 14
14 15 15 14 13 14 16 17 18 17 17 17 17 17 16 16 16 16 18 18 17 17 15 14 14 14 13 12 12 12 12 13 13 13 14 14 13 12 12 12 12 12 11 11 10 11 12 15 14
16 15 14 13 14 14 16 16 17 17 16 16 16 16 14 14 14 16 19 18 17 16 15 14 13 13 13 13 12 12 12 12 13 13 12 13 13 12 12 12 12 11 11 11 11 11 13 13 14
14 14 13 14 14 14 14 16 16 16 15 16 15 14 12 12 12 15 17 18 16 16 14 13 13 13 13 13 12 13 13 12 12 12 13 13 12 12 12 12 12 12 11 11 11 12 13 13 13
15 14 14 15 13 13 13 15 15 15 15 15 15 13 12 11 10 11 14 15 15 14 14 13 14 13 13 13 13 13 13 13 12 12 12 12 12 12 12 12 12 12 12 12 12 12 12 12 13
Height
778 780 782 783 794 797 796 786 783 776 772 763 760 761 761 757 767 775 753 755 757 759 761 763 765 767 771 775 777 780 782 784 786 789 790 792 796 799 802 807 810 814 817 820 822 824 824 826 829
776 779 782 788 795 797 784 783 779 767 759 759 758 759 759 759 754 753 755 756 758 760 761 764 766 769 772 776 778 781 783 784 786 789 791 793 796 800 803 806 809 813 817 819 822 825 827 828 830
776 777 780 786 796 787 780 776 765 762 759 760 757 752 753 753 752 751 751 754 757 760 762 765 766 769 772 776 779 781 782 784 786 790 792 795 798 803 806 810 810 813 815 818 822 825 827 830 833
775 779 788 789 785 785 777 767 767 764 757 757 753 755 751 749 749 749 751 754 756 759 762 765 767 769 772 776 779 781 782 784 787 790 793 797 800 804 807 811 815 817 817 820 822 825 828 832 835
774 779 785 788 784 780 774 770 767 764 762 757 756 755 752 748 748 749 751 753 756 758 761 765 768 770 772 775 779 781 783 785 787 789 792 795 799 803 807 811 817 818 820 821 823 826 828 832 836
776 779 787 780 772 780 771 763 764 762 757 755 759 757 749 747 747 749 751 753 757 759 761 764 768 770 772 774 777 780 783 786 789 790 791 794 798 802 806 813 816 820 822 822 823 827 830 831 835
771 778 775 781 779 779 769 758 761 757 757 755 751 754 746 746 746 748 751 754 757 759 762 764 767 769 771 773 776 779 783 785 787 789 792 793 797 800 800 808 810 819 823 824 820 828 831 833 837
770 771 779 775 769 769 760 758 752 754 753 747 747 751 747 745 747 748 751 754 756 758 761 764 766 770 769 771 775 779 782 785 788 789 790 794 796 800 804 806 809 815 820 822 819 826 830 833 838
772 773 769 765 770 760 757 757 752 751 751 749 746 746 747 745 749 751 751 754 755 756 759 762 765 769 770 769 772 777 781 785 787 790 792 794 798 801 804 805 808 812 818 820 821 823 828 834 840
764 765 760 758 755 755 753 755 753 754 754 748 747 745 747 748 747 751 750 749 752 753 756 759 764 766 770 769 768 773 778 783 785 788 791 793 796 799 801 803 805 811 816 818 822 825 828 835 841
758 754 756 752 749 751 753 752 750 751 750 744 746 743 745 746 748 748 749 748 746 750 753 756 760 764 768 770 767 770 775 780 783 786 788 792 795 796 799 802 806 811 815 818 821 826 831 836 841
756 754 749 744 747 749 751 749 750 748 744 737 739 740 741 742 743 742 742 745 748 748 750 753 758 761 763 769 769 768 772 776 780 783 786 788 790 793 796 800 803 809 814 817 818 827 830 836 840
752 748 748 744 743 745 744 745 744 741 739 731 736 737 736 737 735 735 737 740 744 746 747 749 754 757 760 764 768 767 770 773 777 780 782 785 787 791 794 798 801 805 811 811 818 824 829 835 840
742 743 740 739 741 742 742 737 740 736 731 728 732 729 728 730 728 731 734 733 736 740 741 745 749 753 758 759 764 767 768 770 773 775 777 781 784 787 790 795 798 804 807 813 819 825 830 835 840
739 744 739 739 737 738 735 732 731 724 724 726 723 724 724 723 724 723 724 727 730 734 741 742 744 748 753 756 760 764 765 767 768 770 773 777 781 784 788 792 795 799 805 808 818 826 831 835 841
738 741 744 733 730 729 733 723 722 719 725 724 722 722 721 717 717 716 720 720 724 728 732 738 740 743 748 753 756 760 763 764 765 767 769 773 776 780 784 786 790 796 801 809 815 823 829 834 841
744 739 741 736 725 723 728 719 716 719 722 723 722 719 718 715 713 711 712 713 716 719 725 730 735 738 743 749 753 756 760 762 762 763 766 769 771 773 778 782 785 791 798 807 814 821 826 833 840
740 741 738 734 725 725 722 724 722 716 719 719 717 716 714 714 708 704 706 707 709 713 717 724 728 733 740 745 749 753 756 759 759 760 762 764 766 765 769 774 779 787 796 805 813 818 826 832 837
729 731 731 731 725 729 722 718 717 719 717 719 715 712 709 706 700 699 699 700 703 707 710 716 721 728 734 741 745 749 751 755 757 758 760 761 762 759 759 767 775 783 793 801 809 816 823 832 836
729 730 730 730 726 728 722 713 712 715 710 707 706 703 700 698 695 692 692 694 696 699 704 710 714 721 729 735 741 745 748 752 754 756 757 758 759 762 765 769 776 785 792 799 807 813 822 828 833
728 728 733 731 727 725 725 707 701 696 700 700 700 697 694 691 688 685 686 687 691 694 697 701 707 715 723 731 738 743 746 749 751 754 756 756 760 764 767 772 777 784 790 796 803 809 816 822 830
729 724 725 729 731 735 730 719 708 699 699 701 701 699 694 686 682 679 680 681 682 686 695 700 706 710 718 726 733 737 739 744 746 750 754 755 759 763 766 771 776 782 788 794 800 807 813 817 824
718 720 724 728 732 737 732 732 706 701 702 705 702 699 692 683 677 673 672 672 675 682 689 694 702 710 715 721 729 733 738 742 745 748 752 754 757 760 764 769 774 780 786 793 799 804 809 815 820
716 723 732 736 737 741 724 727 716 702 703 696 694 690 687 681 678 671 667 670 675 680 685 690 696 704 713 719 725 728 733 739 742 746 750 753 754 759 762 765 774 779 783 790 795 801 807 811 816
717 723 735 742 741 725 725 725 710 703 703 701 696 689 685 680 677 672 666 666 669 676 679 684 691 698 707 716 722 725 731 736 740 743 747 751 754 756 761 765 770 775 779 786 792 799 803 807 810
719 715 722 726 727 725 721 714 702 704 701 696 693 691 684 678 676 670 664 661 664 671 677 681 686 693 702 711 720 723 729 734 737 740 744 749 753 755 760 763 767 771 776 784 790 797 801 804 807
721 722 724 729 737 731 719 710 701 700 698 699 696 691 689 681 675 666 657 656 660 665 673 677 684 690 698 707 716 720 726 730 734 737 742 746 751 754 758 762 765 770 775 781 787 793 796 799 803
710 719 727 732 730 730 715 716 705 699 702 699 698 694 693 687 678 663 649 650 657 664 674 681 686 691 697 705 712 717 723 727 732 735 739 744 748 753 757 760 763 767 773 779 784 787 792 795 797
718 719 725 725 730 727 728 709 703 705 706 705 704 703 701 694 684 666 653 652 660 667 674 682 687 690 697 703 711 715 720 724 729 733 737 742 746 750 754 758 762 766 771 776 781 785 789 790 793
711 718 718 717 735 732 734 714 704 707 708 705 704 702 699 697 692 680 666 662 664 670 676 682 686 689 695 701 708 713 717 722 727 730 734 738 743 747 751 755 759 763 767 771 773 777 781 784 788
Wind_Speed
12 7 3 2 2 1 3 4 3 3 3 4 4 4 6 3 5 2 2 20 13 16 16 15 15 17 18 19 19 18 18 22 28 30 31 32 33 33 31 29 28 28 26 25 23 23 22 24 25
14 10 3 2 3 4 4 3 8 7 1 4 4 3 4 3 2 2 8 20 13 16 16 16 16 16 16 19 18 18 17 21 25 29 31 33 33 32 31 30 29 29 27 25 22 22 22 26 27
13 7 3 2 3 8 4 6 7 1 8 4 4 2 2 2 3 5 6 24 14 15 14 15 18 17 16 20 19 18 19 21 24 25 27 26 25 25 27 26 28 29 28 26 24 23 26 28 29
6 3 3 3 13 5 5 2 5 5 3 4 3 3 1 1 3 5 11 22 17 15 13 15 18 18 18 19 20 19 20 21 24 25 24 24 25 24 23 21 22 23 25 26 25 26 28 29 30
4 1 3 4 8 4 7 5 7 7 5 4 2 3 3 2 4 10 14 22 19 17 14 14 18 19 18 18 20 20 20 22 22 26 27 26 26 25 23 20 16 18 20 23 25 25 29 31 30
3 2 3 13 15 4 6 8 4 5 6 6 5 6 4 1 9 14 18 21 17 16 15 13 17 19 17 19 21 21 21 22 23 26 30 29 28 26 22 16 16 14 19 21 24 26 28 31 30
5 4 7 6 7 4 5 7 10 5 3 2 1 6 2 4 10 16 19 19 18 17 16 14 17 19 19 19 23 22 23 24 25 29 30 30 29 28 25 21 14 20 20 23 27 27 29 31 30
4 3 5 7 13 10 5 5 2 4 1 2 4 3 1 2 12 18 17 17 17 18 17 16 17 18 19 21 21 22 23 25 26 29 29 29 28 26 26 27 22 22 25 25 30 30 30 31 30
3 5 12 11 9 8 5 3 2 3 3 5 1 2 3 3 11 13 13 14 17 19 19 17 19 20 21 23 23 22 21 27 29 28 28 26 25 25 24 22 21 26 27 28 31 30 32 32 30
6 8 12 6 11 8 4 4 2 3 4 5 5 2 3 8 15 15 13 16 18 21 22 21 21 20 21 23 23 23 26 33 30 32 29 28 24 23 24 21 23 29 26 26 26 29 34 31 26
7 14 7 8 14 6 4 6 5 7 13 10 7 3 1 5 12 17 19 20 22 20 23 24 23 22 22 23 24 26 26 34 34 35 31 25 19 18 19 21 29 27 27 28 28 32 29 23 23
7 8 13 11 8 6 7 3 5 9 14 14 11 8 7 10 14 20 23 23 18 20 23 26 26 25 25 22 24 25 27 29 33 34 31 26 25 19 19 23 26 27 27 32 36 30 25 25 24
9 8 8 15 14 11 10 14 15 14 14 17 7 9 14 13 17 23 25 20 20 21 22 26 27 27 27 25 25 27 29 30 30 31 31 27 26 23 19 24 24 29 25 31 34 32 25 25 25
4 15 17 13 14 8 11 18 7 7 15 17 9 14 14 10 14 16 20 26 25 24 25 25 27 27 27 28 24 28 28 27 28 28 29 26 26 26 22 24 30 29 27 33 36 26 24 22 22
8 10 13 11 8 6 8 17 16 19 17 17 16 12 11 13 10 18 25 25 26 24 21 26 28 27 27 27 26 25 25 25 27 26 27 26 29 28 25 27 29 34 34 36 38 23 21 21 20
4 3 4 4 16 10 9 19 8 6 6 9 9 7 7 11 10 16 19 24 23 24 25 27 27 28 28 27 24 25 23 22 22 25 27 26 26 31 30 26 34 34 39 39 39 26 23 22 21
2 6 4 5 11 6 15 15 5 4 3 4 7 9 9 10 11 15 17 22 25 27 26 27 27 29 30 28 24 23 21 21 23 23 27 28 25 28 35 31 38 40 42 39 34 28 26 22 21
8 5 6 9 3 7 13 12 11 14 8 10 10 12 12 11 16 19 18 18 22 26 27 27 27 28 30 29 24 21 19 18 18 18 22 24 23 31 40 31 43 43 41 34 30 30 23 22 21
8 9 12 3 4 4 13 18 15 12 12 12 14 14 16 16 19 19 18 16 18 24 27 29 31 29 32 30 24 20 20 20 19 18 18 20 18 23 34 38 41 38 37 35 33 30 25 18 21
11 14 14 7 8 5 13 20 15 13 19 18 17 16 17 15 14 14 14 12 20 24 27 28 33 33 34 28 20 12 16 18 19 14 18 22 23 21 24 30 36 34 31 34 35 31 23 17 25
11 15 9 11 3 4 10 22 17 13 14 13 11 14 17 18 18 15 11 16 18 26 31 32 34 34 32 28 19 12 13 12 16 15 16 15 24 22 27 28 31 34 36 37 37 34 26 19 23
15 10 9 6 4 7 2 9 9 12 7 6 6 12 16 19 19 17 13 14 23 26 27 26 28 34 31 31 23 19 19 15 12 12 15 20 25 26 26 27 28 33 32 32 36 36 29 23 24
9 9 9 5 4 2 4 5 3 7 1 7 11 13 17 18 17 17 16 22 22 25 29 28 27 27 28 32 25 22 18 16 13 12 15 17 27 32 29 31 30 33 32 33 35 34 29 27 28
10 8 6 4 2 4 7 4 2 3 3 17 17 19 20 20 19 17 18 14 18 24 27 29 29 29 25 29 25 23 21 18 17 16 19 19 26 28 33 36 33 36 34 30 29 31 34 34 27
3 6 2 3 4 4 4 6 7 11 10 11 15 19 20 20 19 17 13 14 19 27 29 31 31 29 29 29 25 25 25 19 20 18 19 19 18 26 29 36 40 40 36 40 39 35 36 36 36
5 5 4 4 3 1 4 4 0 4 6 10 15 17 22 23 21 19 14 15 21 27 29 30 31 30 29 29 24 23 22 19 18 19 21 17 20 23 29 32 37 39 36 40 43 33 34 39 35
4 4 2 3 1 1 2 4 6 2 9 14 16 21 24 24 23 22 15 14 21 27 30 30 30 28 28 27 24 22 22 19 17 18 20 22 20 20 26 32 33 36 37 40 43 31 34 38 35
3 8 4 2 2 2 4 4 6 9 13 12 14 18 23 22 23 21 13 13 19 22 21 22 23 24 26 26 23 22 20 22 17 16 16 19 20 21 24 27 30 31 32 35 34 31 27 33 37
4 3 4 4 2 2 3 3 1 7 7 12 13 13 15 19 20 17 9 7 12 17 19 19 21 24 25 22 22 19 19 19 20 18 20 20 19 19 19 23 26 28 29 28 30 29 28 32 34
3 4 3 3 4 1 1 6 3 6 7 9 11 12 14 17 19 16 11 7 12 14 15 17 20 21 22 21 18 18 17 18 19 16 17 18 18 18 19 19 20 22 23 26 30 30 31 32 33
Wind_Direction
183 170 149 53 207 298 241 241 280 230 215 205 151 172 201 147 168 198 155 165 155 170 181 188 188 178 178 183 182 185 183 186 188 186 179 175 172 169 165 162 158 157 154 152 145 141 145 145 147
160 144 83 99 198 218 230 233 231 229 249 283 247 175 188 197 193 154 135 171 164 174 183 187 181 179 180 181 182 180 176 178 183 184 180 176 174 171 167 161 160 160 160 158 152 148 144 150 149
145 143 150 196 190 228 228 208 191 216 282 252 220 240 167 194 182 172 182 176 170 175 181 187 179 180 179 180 183 181 177 175 182 185 184 180 178 176 169 166 165 165 166 162 156 151 153 154 153
147 107 88 217 229 232 223 237 200 320 343 239 272 240 232 200 158 188 172 177 180 180 185 188 182 177 180 182 184 183 183 178 182 181 180 180 176 173 171 172 172 171 165 162 161 160 160 159 158
79 87 191 228 239 248 241 243 270 292 294 241 301 260 248 197 193 170 173 177 181 180 188 191 185 179 180 186 184 188 188 184 181 176 179 176 175 173 170 170 183 178 166 161 163 164 165 164 164
111 131 206 232 234 235 258 257 257 250 251 298 235 236 238 176 172 180 178 177 183 186 187 189 186 181 182 188 186 191 191 192 190 180 178 175 171 167 160 166 174 188 175 173 171 173 171 167 165
178 172 223 249 254 253 241 227 234 243 275 258 270 219 231 206 180 172 172 179 182 189 190 189 186 184 187 188 191 193 195 196 188 180 177 177 169 165 167 186 168 190 196 188 173 179 174 169 165
157 200 203 218 246 266 241 188 210 216 239 345 176 240 231 337 171 164 173 181 184 188 194 191 186 191 186 189 197 199 197 195 192 185 185 184 177 184 179 183 191 201 199 192 177 180 176 170 168
151 220 233 228 213 227 201 193 181 283 279 344 242 256 317 141 161 165 164 178 187 191 197 196 191 196 197 193 198 203 203 195 185 181 180 176 177 185 207 228 231 211 199 190 188 179 177 171 170
198 221 225 219 231 234 196 193 205 295 313 287 292 146 57 166 171 199 198 188 194 195 198 199 194 191 204 197 194 200 198 195 194 184 183 189 201 219 235 230 213 197 197 184 192 186 175 166 162
199 234 218 225 236 215 226 253 204 263 280 252 279 287 189 184 205 214 223 214 198 196 199 200 197 197 204 204 195 195 198 199 199 198 200 216 227 225 216 201 194 196 187 184 191 188 164 164 163
225 229 231 244 226 219 231 208 236 225 258 270 251 266 267 229 217 219 222 223 205 196 200 203 202 202 201 205 201 200 202 204 204 210 217 231 235 222 204 197 197 193 186 186 180 167 166 170 172
230 229 219 243 253 245 254 247 252 258 255 264 250 267 257 239 232 227 226 222 218 211 203 205 205 205 207 208 206 197 200 205 209 217 226 226 226 208 197 193 188 184 180 167 167 171 166 170 173
194 231 243 245 252 251 252 259 240 242 247 269 246 267 268 255 240 236 224 224 218 216 207 204 206 207 210 211 210 211 212 218 223 227 226 218 212 209 197 191 188 178 181 182 179 171 168 164 167
243 252 252 234 244 239 244 261 247 242 249 253 268 263 274 267 243 226 231 227 222 218 212 208 205 207 208 209 213 215 217 221 221 221 220 212 213 212 199 191 185 184 186 184 183 171 164 162 169
225 180 226 224 219 235 206 258 269 251 213 241 262 274 274 272 258 248 235 229 222 214 207 208 204 206 206 207 206 216 220 226 226 222 216 214 217 218 211 189 186 184 185 187 180 171 167 165 171
219 237 205 251 211 202 204 270 259 127 165 247 274 286 284 279 279 263 246 233 224 214 206 201 202 204 205 208 211 212 215 223 231 223 223 224 223 222 216 202 178 185 184 183 175 171 171 167 172
214 207 222 231 206 217 252 249 270 293 302 294 291 286 278 269 269 271 263 249 228 213 205 198 199 198 201 205 207 209 217 229 230 228 225 224 227 239 220 184 174 179 178 173 172 169 171 174 168
216 229 245 205 222 296 275 277 277 265 271 259 263 265 263 259 258 266 266 258 223 208 196 192 191 188 195 196 195 204 210 224 229 227 224 225 197 165 165 160 172 169 170 172 172 165 161 164 161
214 238 247 267 255 260 278 277 284 260 262 262 255 257 258 255 256 251 252 232 212 205 196 188 188 189 192 189 189 193 198 217 210 201 215 212 188 173 172 167 166 166 164 168 168 167 161 162 169
217 225 219 249 281 260 305 285 278 265 244 254 250 260 270 266 261 250 228 215 209 204 196 186 184 184 184 184 182 183 176 200 199 202 207 194 194 185 181 179 180 176 177 175 174 174 171 164 179
225 210 212 198 212 265 354 293 285 276 266 245 325 314 301 282 267 260 237 214 208 206 194 185 181 180 183 184 181 185 181 191 196 189 197 195 210 196 193 189 187 188 183 177 178 180 181 175 177
223 177 191 164 180 286 240 263 315 258 38 8 342 345 339 332 285 265 243 228 211 194 189 176 174 180 181 183 185 182 185 195 181 178 191 195 194 197 197 190 188 188 189 184 181 184 186 186 183
142 102 68 69 139 242 241 238 219 295 321 336 351 348 348 342 333 290 257 224 207 192 184 173 172 176 182 184 186 185 182 185 180 173 188 185 192 199 198 193 193 186 183 185 185 194 200 201 194
145 139 146 201 196 233 181 237 259 343 21 6 355 350 346 340 333 321 270 207 192 193 184 180 177 174 181 187 188 185 187 183 186 180 184 187 177 186 191 196 198 193 197 198 196 198 210 205 205
172 176 182 210 199 207 225 252 251 48 21 3 359 355 348 340 332 319 292 222 195 195 189 183 179 171 176 183 190 186 186 187 187 180 187 185 193 183 193 198 199 199 199 198 198 205 216 212 211
167 168 84 116 60 254 253 285 255 19 7 3 355 352 345 334 328 318 295 221 198 193 193 187 183 174 172 177 182 184 191 185 187 184 194 195 201 199 193 195 196 198 195 194 194 208 216 213 220
158 143 139 37 137 242 260 258 257 341 344 336 347 355 340 338 331 324 300 217 198 191 183 181 180 177 170 173 178 181 184 190 183 178 184 199 203 201 202 195 194 194 201 201 200 211 221 218 227
142 143 75 110 148 172 308 279 131 310 313 322 330 356 355 344 335 337 9 136 165 173 164 174 175 170 169 171 180 182 182 193 192 188 200 207 204 197 198 198 202 201 196 200 202 212 218 227 232
107 124 130 163 162 204 292 274 36 344 317 323 336 3 12 2 338 356 26 101 137 144 155 170 170 164 170 168 175 180 177 189 191 192 193 195 197 200 203 203 204 203 205 206 206 209 217 219 223